| time (UTC) | temp C | wind direction | speed KPH | gust KPH | rain 1hr cm | rain 24hr cm | rain mn cm | humidity % | barometer mb |
| 20260905171048 | 23 | 7 | 0.0 | 11.3 | 0.00 | 0.00 | 0.00 | 66 | 1013.4 |
| 20260905170549 | 23 | 357 | 0.0 | 25.7 | 0.00 | 0.00 | 0.00 | 67 | 1013.6 |
| 20260905170049 | 23 | 327 | 9.7 | 25.7 | 0.00 | 0.00 | 0.00 | 65 | 1013.6 |
| 20260905165548 | 24 | 337 | 8.0 | 27.4 | 0.00 | 0.00 | 0.00 | 65 | 1013.6 |
| 20260905165052 | 25 | 339 | 12.9 | 40.2 | 0.00 | 0.00 | 0.00 | 66 | 1013.4 |
| 20260905164548 | 25 | 26 | 11.3 | 40.2 | 0.00 | 0.00 | 0.00 | 68 | 1013.3 |
| 20260905164047 | 26 | 315 | 4.8 | 20.9 | 0.00 | 0.00 | 0.00 | 71 | 1013.2 |
| 20260905163550 | 26 | 30 | 9.7 | 20.9 | 0.00 | 0.00 | 0.00 | 69 | 1013.2 |
| 20260905163049 | 26 | 328 | 3.2 | 27.4 | 0.00 | 0.00 | 0.00 | 69 | 1013.3 |
| 20260905162548 | 26 | 317 | 8.0 | 27.4 | 0.00 | 0.00 | 0.00 | 67 | 1013.2 |
| 20260905162046 | 26 | 353 | 8.0 | 24.1 | 0.00 | 0.00 | 0.00 | 66 | 1013.1 |
| 20260905161546 | 27 | 142 | 4.8 | 25.7 | 0.00 | 0.00 | 0.00 | 65 | 1012.9 |
| 20260905161047 | 27 | 356 | 4.8 | 22.5 | 0.00 | 0.00 | 0.00 | 65 | 1012.8 |
| 20260905160546 | 27 | 306 | 4.8 | 22.5 | 0.00 | 0.00 | 0.00 | 64 | 1012.8 |
| 20260905160046 | 27 | 291 | 4.8 | 20.9 | 0.00 | 0.00 | 0.00 | 64 | 1012.7 |
| 20260905155549 | 27 | 338 | 3.2 | 14.5 | 0.00 | 0.00 | 0.00 | 68 | 1012.9 |
| 20260905155046 | 27 | 324 | 4.8 | 14.5 | 0.00 | 0.00 | 0.00 | 68 | 1013.0 |
| 20260905154546 | 26 | 245 | 3.2 | 22.5 | 0.00 | 0.00 | 0.00 | 70 | 1013.1 |
| 20260905154048 | 26 | 339 | 4.8 | 22.5 | 0.00 | 0.00 | 0.00 | 70 | 1013.0 |
| 20260905153545 | 26 | 330 | 8.0 | 20.9 | 0.00 | 0.00 | 0.00 | 68 | 1013.1 |
| 20260905153045 | 26 | 257 | 9.7 | 20.9 | 0.00 | 0.00 | 0.00 | 67 | 1012.9 |
| 20260905152545 | 26 | 331 | 4.8 | 19.3 | 0.00 | 0.00 | 0.00 | 67 | 1013.0 |
| 20260905152044 | 27 | 360 | 4.8 | 22.5 | 0.00 | 0.00 | 0.00 | 67 | 1012.9 |
| 20260905151548 | 26 | 51 | 8.0 | 22.5 | 0.00 | 0.00 | 0.00 | 68 | 1012.9 |
| 20260905151044 | 27 | 336 | 6.4 | 17.7 | 0.00 | 0.00 | 0.00 | 68 | 1012.7 |
| 20260905150544 | 27 | 314 | 4.8 | 17.7 | 0.00 | 0.00 | 0.00 | 69 | 1012.6 |
| 20260905150044 | 26 | 349 | 8.0 | 17.7 | 0.00 | 0.00 | 0.00 | 69 | 1012.6 |
| 20260905145543 | 27 | 12 | 9.7 | 17.7 | 0.00 | 0.00 | 0.00 | 68 | 1012.6 |
| 20260905145042 | 27 | 327 | 6.4 | 12.9 | 0.00 | 0.00 | 0.00 | 68 | 1012.6 |
| 20260905144541 | 27 | 4 | 4.8 | 19.3 | 0.00 | 0.00 | 0.00 | 68 | 1012.6 |
| 20260905144044 | 27 | 333 | 6.4 | 19.3 | 0.00 | 0.00 | 0.00 | 66 | 1012.7 |
| 20260905143544 | 27 | 340 | 0.0 | 8.0 | 0.00 | 0.00 | 0.00 | 69 | 1012.8 |
| 20260905143047 | 27 | 37 | 1.6 | 8.0 | 0.00 | 0.00 | 0.00 | 69 | 1012.7 |
| 20260905142541 | 27 | 300 | 0.0 | 3.2 | 0.00 | 0.00 | 0.00 | 70 | 1012.8 |
| 20260905142038 | 27 | 15 | 0.0 | 4.8 | 0.00 | 0.00 | 0.00 | 72 | 1012.8 |
| 20260905141535 | 27 | 20 | 0.0 | 4.8 | 0.00 | 0.00 | 0.00 | 72 | 1012.9 |
| 20260905141034 | 27 | 350 | 1.6 | 4.8 | 0.00 | 0.00 | 0.00 | 71 | 1012.9 |
| 20260905140534 | 27 | 255 | 0.0 | 1.6 | 0.00 | 0.00 | 0.00 | 74 | 1012.9 |
| 20260905140032 | 26 | 251 | 0.0 | 3.2 | 0.00 | 0.00 | 0.00 | 78 | 1012.8 |
| 20260905135529 | 25 | 335 | 0.0 | 4.8 | 0.00 | 0.00 | 0.00 | 79 | 1012.8 |
| 20260905135033 | 25 | 330 | 1.6 | 4.8 | 0.00 | 0.00 | 0.00 | 80 | 1012.8 |
| 20260905134533 | 25 | 331 | 1.6 | 3.2 | 0.00 | 0.00 | 0.00 | 80 | 1012.8 |
| 20260905134028 | 25 | 341 | 0.0 | 4.8 | 0.00 | 0.00 | 0.00 | 82 | 1012.7 |
| 20260905133523 | 24 | 341 | 1.6 | 4.8 | 0.00 | 0.00 | 0.00 | 83 | 1012.8 |
| 20260905133023 | 23 | 354 | 1.6 | 4.8 | 0.00 | 0.00 | 0.00 | 83 | 1013.0 |
| 20260905132521 | 23 | 354 | 0.0 | 3.2 | 0.00 | 0.00 | 0.00 | 85 | 1013.0 |
| 20260905132022 | 23 | 354 | 1.6 | 3.2 | 0.00 | 0.00 | 0.00 | 87 | 1013.2 |
| 20260905131521 | 22 | 350 | 0.0 | 3.2 | 0.00 | 0.00 | 0.00 | 89 | 1013.3 |
| 20260905131016 | 22 | 349 | 0.0 | 1.6 | 0.00 | 0.00 | 0.00 | 91 | 1013.3 |
| 20260905130515 | 22 | 37 | 0.0 | 0.0 | 0.00 | 0.00 | 0.00 | 94 | 1013.4 |
| 20260905130013 | 21 | 42 | 0.0 | 0.0 | 0.00 | 0.00 | 0.00 | 96 | 1013.6 |
| 20260905125511 | 21 | 42 | 0.0 | 0.0 | 0.00 | 0.00 | 0.00 | 96 | 1013.6 |
| 20260905125011 | 20 | 113 | 0.0 | 0.0 | 0.00 | 0.00 | 0.00 | 96 | 1013.7 |
| 20260905124511 | 20 | 113 | 0.0 | 1.6 | 0.00 | 0.00 | 0.00 | 95 | 1013.6 |
| 20260905124011 | 20 | 113 | 0.0 | 1.6 | 0.00 | 0.00 | 0.00 | 96 | 1013.6 |
| 20260905123507 | 19 | 113 | 0.0 | 0.0 | 0.00 | 0.00 | 0.00 | 95 | 1013.5 |
| 20260905123007 | 19 | 113 | 0.0 | 0.0 | 0.00 | 0.00 | 0.00 | 96 | 1013.6 |
| 20260905122505 | 18 | 113 | 0.0 | 0.0 | 0.00 | 0.00 | 0.00 | 96 | 1013.5 |
| 20260905122003 | 18 | 113 | 0.0 | 0.0 | 0.00 | 0.00 | 0.00 | 96 | 1013.4 |
| 20260905121505 | 18 | 113 | 0.0 | 0.0 | 0.00 | 0.00 | 0.00 | 96 | 1013.5 |
| 20260905121003 | 18 | 113 | 0.0 | 0.0 | 0.00 | 0.00 | 0.00 | 96 | 1013.5 |
| 20260905120502 | 18 | 113 | 0.0 | 0.0 | 0.00 | 0.00 | 0.00 | 96 | 1013.4 |
| 20260905120003 | 17 | 113 | 0.0 | 0.0 | 0.00 | 0.00 | 0.00 | 95 | 1013.5 |
| 20260905115502 | 17 | 113 | 0.0 | 0.0 | 0.00 | 0.00 | 0.00 | 96 | 1013.4 |
| 20260905115005 | 17 | 113 | 0.0 | 0.0 | 0.00 | 0.00 | 0.00 | 96 | 1013.4 |
| 20260905114502 | 17 | 113 | 0.0 | 0.0 | 0.00 | 0.00 | 0.00 | 96 | 1013.4 |
| 20260905114101 | 17 | 113 | 0.0 | 0.0 | 0.00 | 0.00 | 0.00 | 96 | 1013.2 |
| 20260905113600 | 17 | 113 | 0.0 | 0.0 | 0.00 | 0.00 | 0.00 | 96 | 1013.1 |
| 20260905113100 | 17 | 113 | 0.0 | 0.0 | 0.00 | 0.00 | 0.00 | 96 | 1013.1 |
| 20260905112600 | 16 | 113 | 0.0 | 0.0 | 0.00 | 0.00 | 0.00 | 96 | 1013.0 |
| 20260905112100 | 16 | 113 | 0.0 | 0.0 | 0.00 | 0.00 | 0.00 | 96 | 1012.9 |
| 20260905111559 | 16 | 113 | 0.0 | 0.0 | 0.00 | 0.00 | 0.00 | 96 | 1013.0 |
| 20260905111100 | 16 | 113 | 0.0 | 0.0 | 0.00 | 0.00 | 0.00 | 96 | 1013.0 |
| 20260905110558 | 16 | 113 | 0.0 | 0.0 | 0.00 | 0.00 | 0.00 | 96 | 1012.9 |
| 20260905110110 | 16 | 113 | 0.0 | 0.0 | 0.00 | 0.00 | 0.00 | 96 | 1012.9 |
| 20260905105558 | 16 | 113 | 0.0 | 0.0 | 0.00 | 0.00 | 0.00 | 96 | 1012.8 |
| 20260905105058 | 16 | 113 | 0.0 | 0.0 | 0.00 | 0.00 | 0.00 | 96 | 1012.7 |
| 20260905104558 | 16 | 113 | 0.0 | 0.0 | 0.00 | 0.00 | 0.00 | 96 | 1012.7 |
| 20260905104056 | 16 | 113 | 0.0 | 0.0 | 0.00 | 0.00 | 0.00 | 96 | 1012.7 |
| 20260905103559 | 17 | 113 | 0.0 | 0.0 | 0.00 | 0.00 | 0.00 | 96 | 1012.7 |
| 20260905103056 | 17 | 113 | 0.0 | 0.0 | 0.00 | 0.00 | 0.00 | 96 | 1012.8 |
| 20260905102655 | 17 | 113 | 0.0 | 0.0 | 0.00 | 0.00 | 0.00 | 96 | 1012.8 |
| 20260905102056 | 17 | 113 | 0.0 | 0.0 | 0.00 | 0.00 | 0.00 | 96 | 1012.7 |
| 20260905101605 | 17 | 113 | 0.0 | 0.0 | 0.00 | 0.00 | 0.00 | 96 | 1012.6 |
| 20260905101054 | 17 | 113 | 0.0 | 0.0 | 0.00 | 0.00 | 0.00 | 96 | 1012.7 |
| 20260905100554 | 17 | 113 | 0.0 | 0.0 | 0.00 | 0.00 | 0.00 | 96 | 1012.7 |
| 20260905100054 | 17 | 113 | 0.0 | 0.0 | 0.00 | 0.00 | 0.00 | 96 | 1012.6 |
| 20260905095555 | 17 | 113 | 0.0 | 0.0 | 0.00 | 0.00 | 0.00 | 96 | 1012.6 |
| 20260905095054 | 17 | 113 | 0.0 | 0.0 | 0.00 | 0.00 | 0.00 | 96 | 1012.6 |
| 20260905094554 | 17 | 113 | 0.0 | 0.0 | 0.00 | 0.00 | 0.00 | 96 | 1012.5 |
| 20260905094054 | 16 | 113 | 0.0 | 0.0 | 0.00 | 0.00 | 0.00 | 96 | 1012.5 |
| 20260905093553 | 17 | 113 | 0.0 | 0.0 | 0.00 | 0.00 | 0.00 | 96 | 1012.3 |
| 20260905093053 | 17 | 113 | 0.0 | 0.0 | 0.00 | 0.00 | 0.00 | 96 | 1012.3 |
| 20260905092552 | 17 | 113 | 0.0 | 0.0 | 0.00 | 0.00 | 0.00 | 96 | 1012.3 |
| 20260905092052 | 17 | 113 | 0.0 | 0.0 | 0.00 | 0.00 | 0.00 | 96 | 1012.4 |
| 20260905091602 | 17 | 113 | 0.0 | 0.0 | 0.00 | 0.00 | 0.00 | 96 | 1012.4 |
| 20260905091050 | 17 | 113 | 0.0 | 0.0 | 0.00 | 0.00 | 0.00 | 96 | 1012.3 |
| 20260905090550 | 17 | 113 | 0.0 | 0.0 | 0.00 | 0.00 | 0.00 | 96 | 1012.4 |
| 20260905090049 | 17 | 113 | 0.0 | 0.0 | 0.00 | 0.00 | 0.00 | 96 | 1012.5 |
| 20260905085553 | 17 | 113 | 0.0 | 0.0 | 0.00 | 0.00 | 0.00 | 96 | 1012.6 |
| 20260905085050 | 17 | 113 | 0.0 | 0.0 | 0.00 | 0.00 | 0.00 | 96 | 1012.6 |
| 20260905084548 | 17 | 113 | 0.0 | 0.0 | 0.00 | 0.00 | 0.00 | 96 | 1012.6 |
| 20260905084047 | 17 | 113 | 0.0 | 0.0 | 0.00 | 0.00 | 0.00 | 96 | 1012.7 |
| 20260905083547 | 17 | 113 | 0.0 | 0.0 | 0.00 | 0.00 | 0.00 | 96 | 1012.8 |
| 20260905083046 | 17 | 113 | 0.0 | 0.0 | 0.00 | 0.00 | 0.00 | 96 | 1012.7 |
| 20260905082546 | 17 | 113 | 0.0 | 0.0 | 0.00 | 0.00 | 0.00 | 96 | 1012.8 |
| 20260905082045 | 17 | 113 | 0.0 | 0.0 | 0.00 | 0.00 | 0.00 | 96 | 1012.8 |
| 20260905081544 | 17 | 113 | 0.0 | 0.0 | 0.00 | 0.00 | 0.00 | 96 | 1012.8 |
| 20260905081047 | 17 | 113 | 0.0 | 0.0 | 0.00 | 0.00 | 0.00 | 96 | 1013.0 |
| 20260905080542 | 17 | 113 | 0.0 | 0.0 | 0.00 | 0.00 | 0.00 | 96 | 1013.0 |
| 20260905080042 | 17 | 113 | 0.0 | 0.0 | 0.00 | 0.00 | 0.00 | 96 | 1013.0 |
| 20260905075542 | 17 | 113 | 0.0 | 0.0 | 0.00 | 0.00 | 0.00 | 96 | 1013.1 |
| 20260905075042 | 17 | 113 | 0.0 | 0.0 | 0.00 | 0.00 | 0.00 | 96 | 1013.1 |
| 20260905074541 | 17 | 113 | 0.0 | 0.0 | 0.00 | 0.00 | 0.00 | 96 | 1013.2 |
| 20260905074041 | 17 | 113 | 0.0 | 0.0 | 0.00 | 0.00 | 0.00 | 96 | 1013.3 |
| 20260905073543 | 17 | 113 | 0.0 | 0.0 | 0.00 | 0.00 | 0.00 | 96 | 1013.3 |
| 20260905073040 | 17 | 113 | 0.0 | 0.0 | 0.00 | 0.00 | 0.00 | 96 | 1013.4 |
| 20260905072540 | 17 | 113 | 0.0 | 0.0 | 0.00 | 0.00 | 0.00 | 96 | 1013.3 |
| 20260905072039 | 17 | 113 | 0.0 | 0.0 | 0.00 | 0.00 | 0.00 | 96 | 1013.4 |
| 20260905071541 | 17 | 113 | 0.0 | 0.0 | 0.00 | 0.00 | 0.00 | 96 | 1013.4 |
| 20260905071039 | 17 | 113 | 0.0 | 0.0 | 0.00 | 0.00 | 0.00 | 96 | 1013.4 |
| 20260905070538 | 17 | 113 | 0.0 | 0.0 | 0.00 | 0.00 | 0.00 | 96 | 1013.4 |
| 20260905070042 | 17 | 113 | 0.0 | 0.0 | 0.00 | 0.00 | 0.00 | 96 | 1013.5 |
| 20260905065536 | 17 | 113 | 0.0 | 0.0 | 0.00 | 0.00 | 0.00 | 96 | 1013.5 |
| 20260905065038 | 17 | 113 | 0.0 | 0.0 | 0.00 | 0.00 | 0.00 | 96 | 1013.7 |
| 20260905064535 | 17 | 113 | 0.0 | 0.0 | 0.00 | 0.00 | 0.00 | 96 | 1013.7 |
| 20260905064036 | 18 | 113 | 0.0 | 0.0 | 0.00 | 0.00 | 0.00 | 96 | 1013.8 |
| 20260905063535 | 18 | 113 | 0.0 | 0.0 | 0.00 | 0.00 | 0.00 | 96 | 1013.8 |
| 20260905063033 | 18 | 113 | 0.0 | 0.0 | 0.00 | 0.00 | 0.00 | 96 | 1013.9 |
| 20260905062532 | 18 | 113 | 0.0 | 1.6 | 0.00 | 0.00 | 0.00 | 96 | 1014.0 |
| 20260905062031 | 18 | 113 | 0.0 | 1.6 | 0.00 | 0.00 | 0.00 | 96 | 1014.1 |
| 20260905061530 | 18 | 113 | 0.0 | 0.0 | 0.00 | 0.00 | 0.00 | 96 | 1014.3 |
| 20260905061029 | 18 | 113 | 0.0 | 1.6 | 0.00 | 0.00 | 0.00 | 96 | 1014.3 |
| 20260905060528 | 18 | 113 | 0.0 | 1.6 | 0.00 | 0.00 | 0.00 | 96 | 1014.4 |
| 20260905060029 | 18 | 113 | 0.0 | 1.6 | 0.00 | 0.00 | 0.00 | 95 | 1014.4 |
| 20260905055530 | 18 | 121 | 0.0 | 1.6 | 0.00 | 0.00 | 0.00 | 95 | 1014.5 |
| 20260905055028 | 18 | 121 | 0.0 | 0.0 | 0.00 | 0.00 | 0.00 | 95 | 1014.7 |
| 20260905054532 | 18 | 121 | 0.0 | 0.0 | 0.00 | 0.00 | 0.00 | 95 | 1014.8 |
| 20260905054026 | 18 | 121 | 0.0 | 0.0 | 0.00 | 0.00 | 0.00 | 95 | 1014.8 |
| 20260905053526 | 18 | 121 | 0.0 | 0.0 | 0.00 | 0.00 | 0.00 | 95 | 1014.8 |
| 20260905053025 | 18 | 121 | 0.0 | 0.0 | 0.00 | 0.00 | 0.00 | 95 | 1014.9 |
| 20260905052524 | 18 | 121 | 0.0 | 0.0 | 0.00 | 0.00 | 0.00 | 95 | 1015.0 |
| 20260905052024 | 18 | 121 | 0.0 | 0.0 | 0.00 | 0.00 | 0.00 | 95 | 1015.0 |
| 20260905051526 | 18 | 121 | 0.0 | 0.0 | 0.00 | 0.00 | 0.00 | 95 | 1015.0 |
| 20260905051023 | 18 | 121 | 0.0 | 0.0 | 0.00 | 0.00 | 0.00 | 95 | 1015.0 |
| 20260905050524 | 18 | 121 | 0.0 | 0.0 | 0.00 | 0.00 | 0.00 | 95 | 1015.1 |
| 20260905050025 | 18 | 121 | 0.0 | 0.0 | 0.00 | 0.00 | 0.00 | 95 | 1015.1 |
| 20260905045521 | 18 | 121 | 0.0 | 0.0 | 0.00 | 0.00 | 0.00 | 95 | 1015.2 |
| 20260905045025 | 18 | 121 | 0.0 | 0.0 | 0.00 | 0.00 | 0.00 | 95 | 1015.1 |
| 20260905044522 | 18 | 121 | 0.0 | 0.0 | 0.00 | 0.00 | 0.00 | 95 | 1015.0 |
| 20260905044020 | 18 | 121 | 0.0 | 0.0 | 0.00 | 0.00 | 0.00 | 94 | 1015.0 |
| 20260905043520 | 18 | 121 | 0.0 | 0.0 | 0.00 | 0.00 | 0.00 | 94 | 1015.2 |
| 20260905043021 | 18 | 121 | 0.0 | 0.0 | 0.00 | 0.00 | 0.00 | 94 | 1015.2 |
| 20260905042519 | 18 | 121 | 0.0 | 0.0 | 0.00 | 0.00 | 0.00 | 94 | 1015.0 |
| 20260905042019 | 18 | 121 | 0.0 | 0.0 | 0.00 | 0.00 | 0.00 | 94 | 1014.9 |
| 20260905041519 | 18 | 121 | 0.0 | 0.0 | 0.00 | 0.00 | 0.00 | 94 | 1014.9 |
| 20260905041019 | 18 | 121 | 0.0 | 0.0 | 0.00 | 0.00 | 0.00 | 94 | 1015.0 |
| 20260905040519 | 18 | 121 | 0.0 | 0.0 | 0.00 | 0.00 | 0.00 | 93 | 1014.9 |
| 20260905040020 | 18 | 121 | 0.0 | 0.0 | 0.00 | 0.00 | 0.00 | 94 | 1014.9 |
| 20260905035515 | 18 | 121 | 0.0 | 0.0 | 0.00 | 0.00 | 0.00 | 93 | 1014.8 |
| 20260905035013 | 18 | 121 | 0.0 | 1.6 | 0.00 | 0.00 | 0.00 | 94 | 1014.7 |
| 20260905034524 | 18 | 121 | 0.0 | 3.2 | 0.00 | 0.00 | 0.00 | 94 | 1014.7 |
| 20260905034014 | 18 | 121 | 0.0 | 3.2 | 0.00 | 0.00 | 0.00 | 94 | 1014.5 |
| 20260905033513 | 18 | 148 | 0.0 | 1.6 | 0.00 | 0.00 | 0.00 | 94 | 1014.4 |
| 20260905033013 | 18 | 173 | 0.0 | 0.0 | 0.00 | 0.00 | 0.00 | 94 | 1014.5 |
| 20260905032516 | 18 | 173 | 0.0 | 0.0 | 0.00 | 0.00 | 0.00 | 94 | 1014.4 |
| 20260905032016 | 18 | 173 | 0.0 | 0.0 | 0.00 | 0.00 | 0.00 | 93 | 1014.5 |
| 20260905031513 | 18 | 173 | 0.0 | 1.6 | 0.00 | 0.00 | 0.00 | 93 | 1014.3 |
| 20260905031011 | 18 | 125 | 0.0 | 0.0 | 0.00 | 0.00 | 0.00 | 93 | 1014.3 |
| 20260905030513 | 18 | 125 | 0.0 | 0.0 | 0.00 | 0.00 | 0.00 | 93 | 1014.5 |
| 20260905030012 | 18 | 125 | 0.0 | 0.0 | 0.00 | 0.00 | 0.00 | 93 | 1014.3 |
| 20260905025512 | 18 | 125 | 0.0 | 0.0 | 0.00 | 0.00 | 0.00 | 93 | 1014.3 |
| 20260905025012 | 18 | 125 | 0.0 | 0.0 | 0.00 | 0.00 | 0.00 | 93 | 1014.2 |
| 20260905024515 | 18 | 125 | 0.0 | 0.0 | 0.00 | 0.00 | 0.00 | 92 | 1014.1 |
| 20260905024011 | 18 | 125 | 0.0 | 0.0 | 0.00 | 0.00 | 0.00 | 92 | 1014.0 |
| 20260905023509 | 19 | 125 | 0.0 | 0.0 | 0.00 | 0.00 | 0.00 | 92 | 1013.9 |
| 20260905023012 | 19 | 125 | 0.0 | 0.0 | 0.00 | 0.00 | 0.00 | 92 | 1014.0 |
| 20260905022508 | 19 | 125 | 0.0 | 0.0 | 0.00 | 0.00 | 0.00 | 92 | 1014.2 |
| 20260905022007 | 19 | 125 | 0.0 | 1.6 | 0.00 | 0.00 | 0.00 | 91 | 1014.0 |
| 20260905021506 | 19 | 125 | 0.0 | 1.6 | 0.00 | 0.00 | 0.00 | 91 | 1013.9 |
| 20260905021008 | 19 | 139 | 0.0 | 1.6 | 0.00 | 0.00 | 0.00 | 92 | 1014.0 |
| 20260905020508 | 19 | 139 | 0.0 | 0.0 | 0.00 | 0.00 | 0.00 | 92 | 1014.0 |
| 20260905020007 | 19 | 139 | 0.0 | 0.0 | 0.00 | 0.00 | 0.00 | 92 | 1014.0 |
| 20260905015506 | 19 | 139 | 0.0 | 1.6 | 0.00 | 0.00 | 0.00 | 92 | 1014.0 |
| 20260905015006 | 20 | 139 | 0.0 | 1.6 | 0.00 | 0.00 | 0.00 | 91 | 1014.2 |
| 20260905014505 | 20 | 139 | 0.0 | 1.6 | 0.00 | 0.00 | 0.00 | 91 | 1014.4 |
| 20260905014005 | 20 | 139 | 0.0 | 0.0 | 0.00 | 0.00 | 0.00 | 91 | 1014.4 |
| 20260905013505 | 20 | 139 | 0.0 | 0.0 | 0.00 | 0.00 | 0.00 | 90 | 1014.5 |
| 20260905013005 | 20 | 139 | 0.0 | 1.6 | 0.00 | 0.00 | 0.00 | 90 | 1014.5 |
| 20260905012505 | 20 | 139 | 0.0 | 0.0 | 0.00 | 0.00 | 0.00 | 90 | 1014.3 |
| 20260905012005 | 20 | 139 | 0.0 | 0.0 | 0.00 | 0.00 | 0.00 | 90 | 1014.2 |
| 20260905011505 | 20 | 139 | 0.0 | 0.0 | 0.00 | 0.00 | 0.00 | 89 | 1014.2 |
| 20260905011006 | 20 | 139 | 0.0 | 0.0 | 0.00 | 0.00 | 0.00 | 89 | 1014.3 |
| 20260905010504 | 20 | 139 | 0.0 | 1.6 | 0.00 | 0.00 | 0.00 | 88 | 1014.3 |
| 20260905010004 | 20 | 139 | 0.0 | 1.6 | 0.00 | 0.00 | 0.00 | 88 | 1014.4 |
| 20260905005503 | 20 | 139 | 0.0 | 0.0 | 0.00 | 0.00 | 0.00 | 88 | 1014.4 |
| 20260905005003 | 21 | 139 | 0.0 | 1.6 | 0.00 | 0.00 | 0.00 | 88 | 1014.5 |
| 20260905004503 | 21 | 139 | 0.0 | 1.6 | 0.00 | 0.00 | 0.00 | 87 | 1014.4 |
| 20260905004003 | 21 | 213 | 0.0 | 0.0 | 0.00 | 0.00 | 0.00 | 86 | 1014.5 |
| 20260905003503 | 21 | 213 | 0.0 | 0.0 | 0.00 | 0.00 | 0.00 | 86 | 1014.6 |
| 20260905003006 | 21 | 213 | 0.0 | 0.0 | 0.00 | 0.00 | 0.00 | 86 | 1014.5 |
| 20260905002502 | 21 | 213 | 0.0 | 0.0 | 0.00 | 0.00 | 0.00 | 85 | 1014.6 |
| 20260905002003 | 21 | 213 | 0.0 | 0.0 | 0.00 | 0.00 | 0.00 | 85 | 1014.5 |
| 20260905001502 | 22 | 213 | 0.0 | 0.0 | 0.00 | 0.00 | 0.00 | 84 | 1014.5 |
| 20260905001002 | 22 | 213 | 0.0 | 0.0 | 0.00 | 0.00 | 0.00 | 83 | 1014.4 |
| 20260905000602 | 22 | 213 | 0.0 | 0.0 | 0.00 | 0.00 | 0.00 | 83 | 1014.2 |
| 20260905000502 | 22 | 213 | 0.0 | 0.0 | 0.00 | 0.00 | 0.00 | 83 | 1014.2 |
| 20260905000001 | 22 | 213 | 0.0 | 1.6 | 0.00 | 0.00 | 0.00 | 82 | 1014.1 |
| 20260904235501 | 22 | 230 | 0.0 | 4.8 | 0.00 | 0.00 | 0.00 | 82 | 1014.3 |
| 20260904235001 | 22 | 233 | 0.0 | 4.8 | 0.00 | 0.00 | 0.00 | 82 | 1014.4 |
| 20260904234500 | 23 | 205 | 1.6 | 3.2 | 0.00 | 0.00 | 0.00 | 80 | 1014.3 |
| 20260904234100 | 23 | 224 | 0.0 | 3.2 | 0.00 | 0.00 | 0.00 | 79 | 1014.5 |
| 20260904233600 | 23 | 154 | 0.0 | 0.0 | 0.00 | 0.00 | 0.00 | 77 | 1014.4 |
| 20260904233100 | 23 | 154 | 0.0 | 0.0 | 0.00 | 0.00 | 0.00 | 75 | 1014.4 |
| 20260904232600 | 23 | 154 | 0.0 | 1.6 | 0.00 | 0.00 | 0.00 | 75 | 1014.3 |
| 20260904232101 | 24 | 153 | 0.0 | 1.6 | 0.00 | 0.00 | 0.00 | 73 | 1014.3 |
| 20260904231600 | 25 | 153 | 0.0 | 0.0 | 0.00 | 0.00 | 0.00 | 72 | 1014.2 |
| 20260904231059 | 25 | 153 | 0.0 | 0.0 | 0.00 | 0.00 | 0.00 | 72 | 1014.2 |
| 20260904230559 | 25 | 153 | 0.0 | 0.0 | 0.00 | 0.00 | 0.00 | 70 | 1014.2 |
| 20260904230128 | 25 | 153 | 0.0 | 0.0 | 0.00 | 0.00 | 0.00 | 69 | 1014.2 |
| 20260904225600 | 25 | 153 | 0.0 | 0.0 | 0.00 | 0.00 | 0.00 | 70 | 1014.2 |
| 20260904225059 | 25 | 153 | 0.0 | 1.6 | 0.00 | 0.00 | 0.00 | 68 | 1014.1 |
| 20260904224603 | 25 | 154 | 0.0 | 1.6 | 0.00 | 0.00 | 0.00 | 68 | 1014.0 |
| 20260904224058 | 25 | 154 | 0.0 | 0.0 | 0.00 | 0.00 | 0.00 | 66 | 1014.0 |
| 20260904223558 | 25 | 154 | 0.0 | 1.6 | 0.00 | 0.00 | 0.00 | 68 | 1013.9 |
| 20260904223105 | 25 | 153 | 0.0 | 1.6 | 0.00 | 0.00 | 0.00 | 68 | 1014.0 |
| 20260904222558 | 25 | 334 | 0.0 | 3.2 | 0.00 | 0.00 | 0.00 | 67 | 1014.2 |
| 20260904222058 | 26 | 334 | 0.0 | 3.2 | 0.00 | 0.00 | 0.00 | 64 | 1014.3 |
| 20260904221558 | 26 | 52 | 0.0 | 3.2 | 0.00 | 0.00 | 0.00 | 66 | 1014.2 |
| 20260904221057 | 26 | 158 | 0.0 | 3.2 | 0.00 | 0.00 | 0.00 | 65 | 1014.2 |
| 20260904220557 | 26 | 328 | 0.0 | 3.2 | 0.00 | 0.00 | 0.00 | 64 | 1014.2 |
| 20260904220057 | 26 | 240 | 0.0 | 8.0 | 0.00 | 0.00 | 0.00 | 65 | 1014.2 |
| 20260904215557 | 26 | 242 | 0.0 | 9.7 | 0.00 | 0.00 | 0.00 | 64 | 1014.3 |
| 20260904215056 | 27 | 301 | 1.6 | 9.7 | 0.00 | 0.00 | 0.00 | 61 | 1014.1 |
| 20260904214559 | 27 | 44 | 1.6 | 6.4 | 0.00 | 0.00 | 0.00 | 62 | 1014.2 |
| 20260904214056 | 28 | 146 | 0.0 | 8.0 | 0.00 | 0.00 | 0.00 | 65 | 1014.1 |
| 20260904213556 | 28 | 340 | 3.2 | 8.0 | 0.00 | 0.00 | 0.00 | 65 | 1014.1 |
| 20260904213056 | 28 | 108 | 0.0 | 3.2 | 0.00 | 0.00 | 0.00 | 65 | 1013.7 |
| 20260904212556 | 28 | 128 | 0.0 | 1.6 | 0.00 | 0.00 | 0.00 | 67 | 1013.6 |
| 20260904212055 | 27 | 109 | 0.0 | 1.6 | 0.00 | 0.00 | 0.00 | 68 | 1013.5 |
| 20260904211555 | 27 | 194 | 0.0 | 6.4 | 0.00 | 0.00 | 0.00 | 68 | 1013.6 |
| 20260904211054 | 27 | 216 | 0.0 | 6.4 | 0.00 | 0.00 | 0.00 | 69 | 1013.7 |
| 20260904210554 | 27 | 155 | 1.6 | 6.4 | 0.00 | 0.00 | 0.00 | 68 | 1013.8 |
| 20260904210054 | 27 | 180 | 1.6 | 4.8 | 0.00 | 0.00 | 0.00 | 68 | 1013.9 |
| 20260904205554 | 27 | 166 | 0.0 | 3.2 | 0.00 | 0.00 | 0.00 | 68 | 1013.8 |
| 20260904205053 | 27 | 157 | 0.0 | 3.2 | 0.00 | 0.00 | 0.00 | 69 | 1013.7 |
| 20260904204553 | 26 | 210 | 0.0 | 4.8 | 0.00 | 0.00 | 0.00 | 71 | 1013.9 |
| 20260904204053 | 26 | 92 | 0.0 | 4.8 | 0.00 | 0.00 | 0.00 | 70 | 1013.7 |
| 20260904203553 | 26 | 112 | 0.0 | 8.0 | 0.00 | 0.00 | 0.00 | 68 | 1013.7 |
| 20260904203056 | 26 | 106 | 1.6 | 11.3 | 0.00 | 0.00 | 0.00 | 67 | 1013.6 |
| 20260904202554 | 27 | 115 | 1.6 | 6.4 | 0.00 | 0.00 | 0.00 | 65 | 1013.9 |
| 20260904202056 | 27 | 105 | 1.6 | 8.0 | 0.00 | 0.00 | 0.00 | 63 | 1013.8 |
| 20260904201552 | 28 | 70 | 3.2 | 14.5 | 0.00 | 0.00 | 0.00 | 61 | 1013.9 |
| 20260904201056 | 29 | 25 | 4.8 | 14.5 | 0.00 | 0.00 | 0.00 | 59 | 1014.0 |
| 20260904200551 | 30 | 2 | 1.6 | 6.4 | 0.00 | 0.00 | 0.00 | 56 | 1014.0 |
| 20260904200051 | 31 | 169 | 1.6 | 9.7 | 0.00 | 0.00 | 0.00 | 57 | 1013.8 |
| 20260904195551 | 31 | 151 | 3.2 | 9.7 | 0.00 | 0.00 | 0.00 | 54 | 1013.5 |
| 20260904195051 | 31 | 139 | 1.6 | 8.0 | 0.00 | 0.00 | 0.00 | 57 | 1013.5 |
| 20260904194550 | 31 | 245 | 1.6 | 9.7 | 0.00 | 0.00 | 0.00 | 57 | 1013.7 |
| 20260904194050 | 31 | 147 | 4.8 | 9.7 | 0.00 | 0.00 | 0.00 | 55 | 1013.7 |
| 20260904193551 | 32 | 226 | 3.2 | 12.9 | 0.00 | 0.00 | 0.00 | 54 | 1013.6 |
| 20260904193050 | 32 | 248 | 3.2 | 12.9 | 0.00 | 0.00 | 0.00 | 52 | 1013.6 |
| 20260904192549 | 33 | 52 | 0.0 | 4.8 | 0.00 | 0.00 | 0.00 | 53 | 1013.6 |
| 20260904192048 | 33 | 333 | 0.0 | 4.8 | 0.00 | 0.00 | 0.00 | 52 | 1013.7 |
| 20260904191545 | 33 | 102 | 0.0 | 4.8 | 0.00 | 0.00 | 0.00 | 56 | 1014.0 |
| 20260904191046 | 32 | 221 | 0.0 | 6.4 | 0.00 | 0.00 | 0.00 | 54 | 1014.2 |
| 20260904190544 | 32 | 219 | 1.6 | 12.9 | 0.00 | 0.00 | 0.00 | 52 | 1014.3 |
| 20260904190043 | 32 | 161 | 4.8 | 12.9 | 0.00 | 0.00 | 0.00 | 55 | 1014.5 |
| 20260904185543 | 33 | 211 | 1.6 | 9.7 | 0.00 | 0.00 | 0.00 | 50 | 1014.5 |
| 20260904185041 | 33 | 149 | 1.6 | 12.9 | 0.00 | 0.00 | 0.00 | 49 | 1014.5 |
| 20260904184541 | 32 | 148 | 3.2 | 12.9 | 0.00 | 0.00 | 0.00 | 48 | 1014.5 |
| 20260904184040 | 32 | 131 | 3.2 | 9.7 | 0.00 | 0.00 | 0.00 | 48 | 1014.5 |
| 20260904183538 | 32 | 229 | 3.2 | 8.0 | 0.00 | 0.00 | 0.00 | 50 | 1014.7 |
| 20260904183037 | 32 | 126 | 0.0 | 6.4 | 0.00 | 0.00 | 0.00 | 49 | 1014.9 |
| 20260904182536 | 32 | 216 | 0.0 | 6.4 | 0.00 | 0.00 | 0.00 | 51 | 1015.0 |
| 20260904182036 | 31 | 215 | 1.6 | 8.0 | 0.00 | 0.00 | 0.00 | 54 | 1015.0 |
| 20260904181535 | 31 | 133 | 3.2 | 8.0 | 0.00 | 0.00 | 0.00 | 53 | 1015.1 |
| 20260904181034 | 31 | 224 | 3.2 | 8.0 | 0.00 | 0.00 | 0.00 | 53 | 1015.2 |
| 20260904180536 | 31 | 181 | 1.6 | 8.0 | 0.00 | 0.00 | 0.00 | 55 | 1015.3 |
| 20260904180033 | 31 | 213 | 0.0 | 4.8 | 0.00 | 0.00 | 0.00 | 55 | 1015.2 |
| 20260904175533 | 31 | 212 | 0.0 | 1.6 | 0.00 | 0.00 | 0.00 | 56 | 1015.3 |
| 20260904175033 | 30 | 212 | 0.0 | 1.6 | 0.00 | 0.00 | 0.00 | 57 | 1015.5 |
| 20260904174533 | 30 | 212 | 0.0 | 1.6 | 0.00 | 0.00 | 0.00 | 58 | 1015.5 |
| 20260904174032 | 30 | 212 | 0.0 | 1.6 | 0.00 | 0.00 | 0.00 | 55 | 1015.6 |
| 20260904173532 | 30 | 212 | 0.0 | 1.6 | 0.00 | 0.00 | 0.00 | 56 | 1015.7 |
| 20260904173032 | 30 | 352 | 0.0 | 4.8 | 0.00 | 0.00 | 0.00 | 56 | 1015.6 |
| 20260904172532 | 30 | 352 | 0.0 | 9.7 | 0.00 | 0.00 | 0.00 | 54 | 1015.6 |
| 20260904172032 | 32 | 352 | 4.8 | 9.7 | 0.00 | 0.00 | 0.00 | 48 | 1015.7 |